KK4WAQ Weather Reports


Display with metric or nautical units.
time (UTC)temp
F
wind
direction
speed
MPH
gust
MPH
rain 1hr
in
rain 24hr
in
rain mn
in
humidity
%
barometer
mb
20260507091525 51 340 0.0 0.0 0.01 0.95 0.01 93 1014.6
20260507090024 51 10 0.0 0.0 0.01 1.05 0.01 93 1015.0
20260507084529 51 10 0.0 0.0 0.01 1.05 0.01 93 1015.0
20260507083021 51 322 0.0 1.0 0.01 1.05 0.01 93 1014.6
20260507081532 51 355 0.0 0.0 0.00 1.04 0.00 93 1014.7
20260507080019 51 5 0.0 0.0 0.00 1.04 0.00 93 1014.4
20260507074518 51 348 0.0 0.0 0.00 1.04 0.00 93 1014.6
20260507073018 51 24 0.0 1.0 0.00 1.04 0.00 93 1014.4
20260507071515 51 352 0.0 1.0 0.00 1.04 0.00 93 1014.6
20260507070015 51 342 0.0 1.0 0.00 1.04 0.00 94 1014.6
20260507064514 51 313 0.0 0.0 0.00 1.04 0.00 94 1014.9
20260507063013 51 355 0.0 0.0 0.00 1.04 0.00 94 1014.9
20260507061513 51 354 0.0 0.0 0.00 1.04 0.00 94 1015.2
20260507060012 51 353 0.0 0.0 0.00 1.04 0.00 94 1014.9
20260507054511 52 337 0.0 0.0 0.00 1.04 0.00 94 1014.7
20260507053010 52 4 0.0 0.0 0.00 1.04 0.00 95 1015.3
20260507051507 52 353 0.0 0.0 0.00 1.04 0.00 95 1014.9
20260507050008 52 358 0.0 0.0 0.00 1.04 1.04 95 1015.1
20260507044505 52 359 0.0 0.0 0.00 1.04 1.04 95 1015.0
20260507043008 52 358 0.0 0.0 0.00 1.04 1.04 95 1015.8
20260507041502 52 338 0.0 0.0 0.00 1.04 1.04 95 1016.0
20260507040100 52 326 0.0 0.0 0.00 1.04 1.04 95 1015.6
20260507034600 52 350 0.0 0.0 0.00 1.04 1.04 95 1015.2
20260507033059 52 11 0.0 1.0 0.00 1.04 1.04 95 1015.5
20260507031557 52 5 0.0 0.0 0.00 1.04 1.04 95 1015.5
20260507030057 52 16 0.0 1.0 0.00 1.04 1.04 95 1015.1
20260507024556 53 38 0.0 1.0 0.00 1.04 1.04 95 1015.3
20260507023108 53 355 0.0 7.0 0.00 1.04 1.04 95 1014.8
20260507021552 53 8 0.0 3.0 0.00 1.04 1.04 95 1014.0
20260507020058 54 13 0.0 6.0 0.00 1.04 1.04 96 1014.4
20260507014553 54 357 0.0 0.0 0.00 1.04 1.04 96 1014.3
20260507013050 54 353 0.0 0.0 0.00 1.04 1.04 96 1015.4
20260507011551 55 353 0.0 0.0 0.00 1.04 1.04 96 1014.9
20260507010049 54 90 0.0 0.0 0.00 1.04 1.04 96 1015.4
20260507004548 54 90 0.0 0.0 0.00 1.04 1.04 96 1014.3
20260507003054 54 90 0.0 0.0 0.00 1.04 1.04 96 1013.8
20260507001609 54 67 0.0 0.0 0.00 1.04 1.04 96 1013.5
20260507000046 54 344 0.0 0.0 0.00 1.04 1.04 96 1013.3
20260506234552 54 1 0.0 0.0 0.00 1.04 1.04 96 1013.3
20260506233046 54 347 0.0 0.0 0.00 1.04 1.04 96 1013.5
20260506231545 54 22 0.0 2.0 0.00 1.04 1.04 96 1013.5
20260506230054 54 1 0.0 0.0 0.00 1.04 1.04 96 1014.1
20260506224544 54 352 0.0 2.0 0.00 1.04 1.04 96 1014.2
20260506223044 54 353 0.0 0.0 0.00 1.04 1.04 96 1014.4
20260506221559 54 353 0.0 0.0 0.00 1.04 1.04 96 1014.4
20260506220043 54 333 0.0 0.0 0.00 1.04 1.04 96 1014.3
20260506214542 53 283 0.0 0.0 0.00 1.04 1.04 96 1014.7
20260506213040 53 336 0.0 2.0 0.00 1.04 1.04 96 1014.5
20260506211539 54 347 0.0 2.0 0.00 1.04 1.04 96 1013.5
20260506210051 54 11 0.0 2.0 0.00 1.04 1.04 96 1013.9
20260506204542 54 329 0.0 6.0 0.00 1.04 1.04 96 1013.3
20260506203038 54 321 0.0 3.0 0.00 1.04 1.04 96 1013.7
20260506201537 54 351 0.0 3.0 0.00 1.04 1.04 96 1013.4
20260506200036 54 336 0.0 3.0 0.00 1.04 1.04 96 1013.5
20260506194536 55 350 0.0 1.0 0.00 1.04 1.04 96 1013.7
20260506193041 55 20 0.0 0.0 0.02 1.04 1.04 97 1013.3
20260506191536 54 359 0.0 1.0 0.02 1.04 1.04 96 1013.2
20260506190035 54 2 0.0 0.0 0.02 1.04 1.04 97 1013.0
20260506184538 54 6 0.0 1.0 0.02 1.04 1.04 97 1014.0
20260506183032 54 359 0.0 0.0 0.00 1.02 1.02 97 1014.4
20260506181538 54 353 0.0 0.0 0.00 1.02 1.02 97 1014.0
20260506180030 54 346 0.0 0.0 0.00 1.02 1.02 97 1013.7
20260506174534 54 17 0.0 0.0 0.00 1.02 1.02 97 1013.4
20260506173029 54 21 0.0 0.0 0.01 1.02 1.02 97 1013.3
20260506171532 54 20 0.0 1.0 0.01 1.02 1.02 97 1013.0
20260506170030 54 354 0.0 1.0 0.01 1.02 1.02 97 1013.5
20260506164544 54 32 0.0 1.0 0.01 1.02 1.02 97 1012.9
20260506163026 54 7 0.0 0.0 0.00 1.01 1.01 96 1013.4
20260506161525 54 10 0.0 1.0 0.00 1.01 1.01 97 1013.2
20260506160025 54 19 0.0 1.0 0.00 1.01 1.01 97 1013.1
20260506154523 54 347 0.0 3.0 0.00 1.01 1.01 96 1013.2
20260506153021 54 359 0.0 3.0 0.00 1.01 1.01 96 1013.5
20260506151518 54 337 0.0 2.0 0.00 1.01 1.01 96 1012.9
20260506150018 54 349 0.0 1.0 0.00 1.01 1.01 97 1012.9
20260506144523 54 348 0.0 4.0 0.00 1.01 1.01 96 1012.7
20260506143014 54 358 0.0 4.0 0.00 1.01 1.01 96 1012.3
20260506141525 54 320 0.0 3.0 0.00 1.01 1.01 96 1011.8
20260506140014 55 330 0.0 0.0 0.01 1.01 1.01 96 1011.4
20260506134513 55 346 0.0 1.0 0.02 1.01 1.01 96 1011.3
20260506133014 55 57 0.0 0.0 0.10 1.01 1.01 96 1010.7
20260506131512 54 34 0.0 2.0 0.16 1.01 1.01 96 1010.4
20260506130011 54 8 0.0 2.0 0.17 1.00 1.00 96 1010.4
20260506124509 55 2 0.0 6.0 0.16 0.99 0.99 95 1010.8
20260506123007 55 317 0.0 1.0 0.08 0.91 0.91 95 1012.4
20260506121502 57 307 0.0 1.0 0.03 0.85 0.85 95 1011.8
20260506120110 58 247 0.0 1.0 0.03 0.83 0.83 94 1010.8
20260506114555 61 321 0.0 0.0 0.09 0.83 0.83 93 1010.2
20260506113052 65 95 0.0 1.0 0.17 0.83 0.83 97 1008.6
20260506111551 65 163 0.0 3.0 0.22 0.82 0.82 97 1009.0
20260506110100 65 198 0.0 5.0 0.42 0.80 0.80 97 1008.8
20260506104602 65 134 0.0 0.0 0.48 0.73 0.73 96 1008.8
20260506103049 65 212 0.0 0.0 0.48 0.65 0.65 96 1009.5
20260506101549 65 213 0.0 0.0 0.45 0.60 0.60 96 1010.0
20260506100053 65 114 0.0 1.0 0.26 0.36 0.36 95 1009.4
20260506094543 66 113 0.0 0.0 0.16 0.24 0.24 95 1008.9
20260506093039 66 113 0.0 0.0 0.12 0.16 0.16 94 1008.5